[[{"header":{"parameterUnit":"m.s-1","parameterCategory":1,"la1":30.2991,"la2":30.254,"lo1":-89.0895,"lo2":-89.0444,"dy":0.0017,"dx":0.0017,"nx":28,"ny":28,"refTime":"2025-04-24T03:00:00:Z","depth":0,"parameterNumber":2,"parameterNumberName":"U-component_of_WINDS"},"data":[0,0,0,0,0,0,0,0,0,0,0,0,0,0,0,0,0,0,0,0,0,0,0,0,0,0,0,0,0,0,0,0,0,0,0,0,0,0,0,0,0,0,0,0,0,0,0,0,0,0,0,0,0,0,0,0,0,0,-0.4704,-0.4705,0,-0.4795,-0.4796,-0.4797,-0.4849,-0.4849,-0.485,-0.485,-0.4945,-0.4948,-0.495,0,0,0,0,0,0,0,0,0,0,0,0,0,-0.4578,-0.458,-0.4704,-0.4705,-0.4706,-0.4794,-0.4796,-0.4797,-0.4849,-0.4849,-0.485,-0.485,-0.4945,-0.4947,-0.495,0,0,0,0,0,0,0,0,0,0,0,0,0,-0.4647,-0.4581,-0.4704,-0.4743,-0.4747,-0.4794,-0.4796,-0.4797,-0.4849,-0.4849,-0.485,-0.485,-0.4944,-0.4947,-0.4951,-0.4967,0,0,-0.4961,-0.4963,0,0,0,0,0,0,0,0,-0.4643,-0.4652,-0.4736,-0.474,-0.4745,-0.4811,-0.4787,-0.4854,-0.4849,-0.481,-0.485,-0.485,-0.4901,-0.4908,-0.4924,-0.4971,-0.4975,-0.4962,-0.4964,-0.4965,-0.4966,0,0,0,0,0,0,0,-0.4639,-0.4648,-0.474,-0.4737,-0.4743,-0.4757,-0.4767,-0.48,-0.4853,-0.4814,-0.4818,-0.4828,-0.4903,-0.4921,-0.4927,-0.4977,-0.4962,-0.4965,-0.4967,-0.4968,-0.5043,-0.5043,0,0,0,0,0,0,-0.4627,-0.4644,-0.4737,-0.4743,-0.4694,-0.4759,-0.477,-0.4789,-0.4853,-0.4862,-0.4827,-0.483,-0.4914,-0.4923,-0.493,-0.4954,-0.4965,-0.4969,-0.4971,-0.5043,-0.5043,-0.5043,0,0,0,0,0,0,-0.4624,-0.4635,-0.4733,-0.4694,-0.4708,-0.476,-0.4782,-0.4791,-0.4809,-0.4863,-0.4873,-0.4835,-0.4915,-0.4925,-0.4957,-0.4958,-0.497,-0.4974,-0.5043,-0.5043,-0.5043,-0.5001,0,0,0,0,0,0,-0.462,-0.4634,-0.4639,-0.4694,-0.471,-0.4758,-0.4782,-0.4793,-0.4814,-0.4818,-0.4873,-0.4882,-0.4916,-0.4952,-0.4961,-0.4963,-0.4976,-0.5043,-0.5043,-0.5043,-0.5002,-0.4999,-0.4996,0,0,0,0,0,-0.4616,-0.4624,-0.4639,-0.465,-0.4718,-0.4757,-0.4767,-0.4805,-0.4814,-0.4821,-0.4856,-0.488,-0.4956,-0.4955,-0.4965,-0.4969,-0.5044,-0.5043,-0.5043,-0.5004,-0.5,-0.4997,0,0,0,0,0,0,-0.4569,-0.4632,-0.465,-0.4676,-0.4711,-0.4766,-0.4776,-0.4799,-0.4833,-0.4835,-0.4882,-0.4894,-0.4921,-0.4948,-0.4945,-0.4988,-0.5003,-0.5005,-0.4969,-0.4966,-0.4963,-0.4956,-0.4979,0,0,0,0,0,-0.4562,-0.4588,-0.4642,-0.466,-0.4676,-0.4723,-0.4742,-0.4768,-0.4806,-0.4822,-0.4859,-0.4896,-0.4929,-0.4949,-0.4982,-0.5007,-0.502,-0.5014,-0.5011,-0.5009,-0.501,-0.5026,-0.5024,-0.5042,-0.5042,-0.5042,0,0,-0.4547,-0.4585,-0.4598,-0.4651,-0.4682,-0.4708,-0.4735,-0.4762,-0.4783,-0.4826,-0.4858,-0.4887,-0.4932,-0.496,-0.4975,-0.4984,-0.5008,-0.5008,-0.5006,-0.5008,-0.5025,-0.5024,-0.5022,-0.5041,-0.5041,-0.5041,0,0,-0.4534,-0.4565,-0.4584,-0.4613,-0.4658,-0.4689,-0.4694,-0.4746,-0.4766,-0.4799,-0.4833,-0.4858,-0.4913,-0.4944,-0.4966,-0.4965,-0.499,-0.4975,-0.496,-0.4975,-0.4973,-0.4973,-0.4973,-0.4972,-0.4976,-0.4976,-0.4976,0,-0.4511,-0.4551,-0.4591,-0.4616,-0.4638,-0.4678,-0.4698,-0.4725,-0.4779,-0.4794,-0.4803,-0.4873,-0.4906,-0.4943,-0.4942,-0.4959,-0.4967,-0.4969,-0.497,-0.497,-0.4969,-0.497,-0.497,-0.4974,-0.4974,-0.4974,-0.4974,0,-0.452,-0.4548,-0.4558,-0.4608,-0.4632,-0.4654,-0.4698,-0.4718,-0.4742,-0.4772,-0.4806,-0.4847,-0.4889,-0.49,-0.4924,-0.494,-0.4945,-0.4961,-0.4977,-0.4965,-0.4967,-0.4967,-0.4971,-0.4971,-0.4972,-0.4973,0,0,-0.448,-0.4552,-0.4555,-0.4578,-0.4631,-0.4654,-0.4679,-0.4719,-0.4735,-0.4771,-0.4794,-0.4839,-0.4855,-0.4881,-0.4909,-0.4922,-0.492,-0.4938,-0.494,-0.4934,-0.4942,-0.4929,-0.4929,-0.4936,-0.4937,-0.4937,-0.4938,0,-0.4475,-0.452,-0.4557,-0.4589,-0.4615,-0.4654,-0.4676,-0.4711,-0.474,-0.4768,-0.4801,-0.4832,-0.4851,-0.4867,-0.4881,-0.4917,-0.4922,-0.4918,-0.4959,-0.496,-0.4946,-0.4929,-0.4916,-0.4915,-0.4939,-0.4939,-0.4939,0,-0.4475,-0.4509,-0.4543,-0.4594,-0.4606,-0.4625,-0.4665,-0.4691,-0.4732,-0.4753,-0.4782,-0.4811,-0.484,-0.4853,-0.4894,-0.489,-0.4909,-0.4929,-0.493,-0.4936,-0.4949,-0.4935,-0.4916,-0.4916,-0.494,-0.494,-0.494,0,-0.4443,-0.4497,-0.4525,-0.4544,-0.4603,-0.4616,-0.4641,-0.4683,-0.4705,-0.4741,-0.4756,-0.4795,-0.4816,-0.4846,-0.4885,-0.4891,-0.4923,-0.4939,-0.4942,-0.4941,-0.4947,-0.4946,-0.4931,-0.4958,-0.4958,-0.4958,-0.4958,0,-0.4434,-0.4454,-0.4511,-0.4528,-0.4552,-0.4594,-0.4617,-0.4646,-0.4682,-0.4707,-0.4743,-0.4765,-0.4816,-0.4844,-0.4875,-0.4905,-0.4915,-0.4933,-0.4941,-0.493,-0.4928,-0.4943,-0.4944,-0.4958,-0.4958,-0.4958,-0.4958,0,-0.4402,-0.4441,-0.4474,-0.4528,-0.4542,-0.4557,-0.4603,-0.4622,-0.4653,-0.4684,-0.4693,-0.4743,-0.4779,-0.4821,-0.487,-0.4892,-0.4919,-0.4931,-0.4905,-0.4909,-0.491,-0.4909,-0.4905,-0.4907,-0.4932,-0.4932,-0.4932,0,-0.4394,-0.441,-0.4465,-0.4483,-0.4507,-0.4537,-0.4559,-0.4602,-0.4624,-0.4673,-0.4686,-0.4724,-0.4757,-0.4812,-0.4854,-0.4892,-0.4905,-0.4901,-0.4912,-0.49,-0.4906,-0.4905,-0.4907,-0.4898,-0.4898,-0.4897,-0.4897,0,-0.4375,-0.4394,-0.4424,-0.4462,-0.4488,-0.4519,-0.4553,-0.4566,-0.4616,-0.464,-0.4676,-0.4701,-0.4752,-0.479,-0.4834,-0.4862,-0.4888,-0.4893,-0.4896,-0.4885,-0.4869,-0.4878,-0.4897,-0.4893,-0.4894,-0.4894,-0.4894,-0.4894,-0.4355,-0.4371,-0.4412,-0.4446,-0.4475,-0.4506,-0.4526,-0.456,-0.459,-0.4634,-0.4658,-0.4694,-0.4736,-0.4797,-0.4824,-0.4854,-0.4863,-0.4867,-0.4868,-0.4869,-0.4866,-0.4864,-0.4862,-0.4863,-0.4863,-0.4863,-0.4863,0,-0.4338,-0.4367,-0.4397,-0.4442,-0.4469,-0.449,-0.4529,-0.455,-0.4581,-0.4617,-0.4649,-0.4691,-0.4728,-0.4772,-0.4812,-0.4828,-0.4841,-0.4837,-0.4837,-0.4843,-0.4855,-0.4849,-0.4826,-0.4826,-0.4826,-0.4826,-0.4826,-0.4826,-0.4333,-0.4361,-0.4385,-0.4429,-0.4458,-0.4493,-0.4513,-0.4542,-0.4571,-0.4616,-0.4647,-0.4675,-0.4715,-0.4759,-0.4794,-0.4806,-0.482,-0.4812,-0.4828,-0.4839,-0.4842,-0.4845,-0.4839,-0.4815,-0.4815,-0.4814,-0.4813,-0.4813]},{"header":{"parameterUnit":"m.s-1","parameterCategory":1,"la1":30.2991,"la2":30.254,"lo1":-89.0895,"lo2":-89.0444,"dy":0.0017,"dx":0.0017,"nx":28,"ny":28,"refTime":"2025-04-24T03:00:00:Z","depth":0,"parameterNumber":3,"parameterNumberName":"V-component_of_WINDS"},"data":[0,0,0,0,0,0,0,0,0,0,0,0,0,0,0,0,0,0,0,0,0,0,0,0,0,0,0,0,0,0,0,0,0,0,0,0,0,0,0,0,0,0,0,0,0,0,0,0,0,0,0,0,0,0,0,0,0,0,1.1945,1.1944,0,1.1885,1.1884,1.1884,1.1836,1.1835,1.1835,1.1834,1.1769,1.1768,1.1767,0,0,0,0,0,0,0,0,0,0,0,0,0,1.2015,1.2014,1.1945,1.1944,1.1944,1.1885,1.1884,1.1884,1.1836,1.1835,1.1835,1.1834,1.177,1.1768,1.1767,0,0,0,0,0,0,0,0,0,0,0,0,0,1.1973,1.2014,1.1945,1.1913,1.1909,1.1885,1.1884,1.1883,1.1836,1.1835,1.1835,1.1834,1.177,1.1768,1.1766,1.1768,0,0,1.176,1.1759,0,0,0,0,0,0,0,0,1.1975,1.197,1.1918,1.1915,1.1911,1.1867,1.1885,1.1845,1.1836,1.1864,1.1834,1.1834,1.1802,1.1798,1.1788,1.1765,1.1762,1.176,1.1759,1.1758,1.1758,0,0,0,0,0,0,0,1.1978,1.1973,1.1921,1.1918,1.1913,1.19,1.1894,1.1877,1.1837,1.1861,1.1858,1.1851,1.18,1.179,1.1786,1.1761,1.176,1.1758,1.1757,1.1757,1.1737,1.1738,0,0,0,0,0,0,1.1987,1.1976,1.1923,1.1919,1.1942,1.19,1.1892,1.1882,1.1838,1.183,1.1852,1.1849,1.1793,1.1788,1.1783,1.1783,1.1758,1.1756,1.1755,1.1737,1.1738,1.1738,0,0,0,0,0,0,1.1989,1.1983,1.1926,1.1947,1.1938,1.1899,1.1888,1.1881,1.1871,1.1831,1.1823,1.1849,1.1793,1.1786,1.1773,1.178,1.1755,1.1754,1.1736,1.1737,1.1738,1.1781,0,0,0,0,0,0,1.1991,1.1984,1.1985,1.1947,1.1937,1.1917,1.1889,1.1881,1.1868,1.1864,1.1826,1.1819,1.1792,1.1776,1.1771,1.1777,1.1752,1.1735,1.1736,1.1738,1.1779,1.1784,1.1788,0,0,0,0,0,1.1993,1.1999,1.1985,1.1979,1.1938,1.1918,1.1912,1.1882,1.1869,1.1869,1.1843,1.182,1.178,1.1775,1.1769,1.1774,1.1735,1.1736,1.1738,1.1777,1.1783,1.1788,0,0,0,0,0,0,1.2037,1.1993,1.1977,1.1971,1.1948,1.191,1.1909,1.1889,1.1868,1.1865,1.1827,1.1819,1.181,1.179,1.1786,1.1774,1.1754,1.1755,1.1787,1.1792,1.1796,1.18,1.1751,0,0,0,0,0,1.2046,1.2034,1.1996,1.1993,1.1983,1.1948,1.1938,1.1917,1.1892,1.1882,1.1855,1.183,1.1812,1.1801,1.1782,1.1776,1.1767,1.1777,1.1781,1.1785,1.1786,1.1781,1.1785,1.1743,1.1743,1.1743,0,0,1.2064,1.2038,1.2033,1.2001,1.1982,1.1969,1.194,1.1928,1.1918,1.1879,1.1865,1.1845,1.1815,1.1806,1.18,1.1789,1.1795,1.1787,1.179,1.1789,1.1783,1.1787,1.1791,1.1744,1.1744,1.1744,0,0,1.209,1.207,1.2066,1.2047,1.2018,1.1995,1.1994,1.1958,1.1944,1.1929,1.19,1.1887,1.1856,1.1836,1.1822,1.1842,1.1819,1.1836,1.1859,1.1855,1.1858,1.1861,1.1867,1.187,1.1837,1.1837,1.1837,0,1.2116,1.2097,1.2066,1.2056,1.2043,1.2008,1.2003,1.1986,1.1952,1.1943,1.1932,1.1893,1.187,1.1856,1.1861,1.1851,1.1848,1.184,1.186,1.1863,1.1865,1.187,1.1873,1.184,1.1839,1.1839,1.1839,0,1.213,1.2117,1.2117,1.2086,1.2073,1.2066,1.2033,1.2023,1.2003,1.1981,1.1966,1.1938,1.1913,1.1908,1.1888,1.1891,1.1885,1.1868,1.1847,1.1871,1.1876,1.1878,1.1843,1.1842,1.1841,1.1841,0,0,1.2181,1.2134,1.2134,1.212,1.2086,1.2075,1.2066,1.2042,1.2034,1.2012,1.2003,1.1978,1.1962,1.1946,1.1923,1.192,1.1937,1.1903,1.1902,1.191,1.1938,1.1951,1.1954,1.1922,1.1923,1.1923,1.1941,0,1.2201,1.2184,1.2156,1.2148,1.2135,1.2103,1.2094,1.2072,1.2051,1.2037,1.2013,1.1996,1.1976,1.1967,1.1962,1.1936,1.1942,1.1935,1.1912,1.1912,1.1921,1.1957,1.1971,1.1989,1.1942,1.1943,1.1943,0,1.2223,1.2204,1.2195,1.2162,1.2155,1.2149,1.2125,1.2112,1.2086,1.2071,1.2054,1.2029,1.2017,1.1999,1.1981,1.1976,1.1966,1.1952,1.1951,1.1948,1.1929,1.1954,1.1994,1.1996,1.1946,1.1945,1.1945,0,1.2261,1.2233,1.2224,1.2213,1.2174,1.217,1.2153,1.2126,1.2114,1.2093,1.2085,1.2062,1.205,1.2033,1.2003,1.1992,1.1988,1.1967,1.1974,1.1975,1.1974,1.1974,1.2012,1.1968,1.1968,1.1968,1.1968,0,1.2287,1.2282,1.2241,1.2235,1.2229,1.2196,1.2191,1.2171,1.2147,1.2136,1.2106,1.2096,1.2058,1.2043,1.2019,1.2008,1.2002,1.1989,1.1983,1.1991,1.1993,1.1983,1.1981,1.1969,1.1968,1.1968,1.1968,0,1.2328,1.23,1.2288,1.2253,1.2244,1.2241,1.221,1.2202,1.218,1.2167,1.2162,1.2126,1.2107,1.2076,1.2048,1.2032,1.2024,1.2014,1.2034,1.203,1.2038,1.2038,1.2071,1.2073,1.2028,1.2029,1.2029,0,1.2346,1.2342,1.2307,1.2298,1.2283,1.2269,1.2257,1.2225,1.2213,1.2183,1.2179,1.2159,1.214,1.2112,1.2083,1.2061,1.2049,1.2063,1.2046,1.2055,1.2049,1.205,1.2049,1.2066,1.2067,1.2067,1.2068,0,1.2382,1.2368,1.2352,1.2332,1.2318,1.23,1.2281,1.2275,1.2238,1.2226,1.2208,1.2194,1.2166,1.2145,1.2119,1.2101,1.2078,1.2074,1.2074,1.2083,1.2094,1.2088,1.2044,1.2073,1.2072,1.2072,1.2072,1.2071,1.2411,1.2406,1.2381,1.2364,1.2346,1.2329,1.2321,1.2298,1.2282,1.2257,1.2239,1.2222,1.2195,1.2158,1.2141,1.2126,1.2116,1.2116,1.2116,1.2117,1.212,1.2097,1.2121,1.2121,1.2121,1.2121,1.2121,0,1.2445,1.2427,1.2412,1.2386,1.2373,1.2354,1.2332,1.2321,1.2307,1.2285,1.2268,1.2246,1.2226,1.2196,1.2173,1.2167,1.2156,1.2162,1.2162,1.2158,1.2131,1.2133,1.2172,1.2172,1.2172,1.2172,1.2172,1.2172,1.2461,1.2451,1.2435,1.2416,1.2397,1.2381,1.237,1.2353,1.2335,1.2313,1.2296,1.2277,1.2252,1.2227,1.2208,1.2199,1.2192,1.2202,1.219,1.2165,1.216,1.2156,1.2157,1.22,1.22,1.2218,1.2218,1.2219]}]]